(92008) = 1999 VP156

Discovered at Socorro on 1999-11-12 by LINEAR.

Orbit

Orbit type: Main Belt

Note: WebGL enabled browser required.

epoch2024-03-31.0
epoch JD2460400.5
perihelion date2021-08-05.48449
perihelion JD2459431.98449
argument of perihelion (°)64.55097
ascending node (°)346.28636
inclination (°)0.83503
eccentricity0.1037249
perihelion distance (AU)2.7776943
Tisserand w.r.t. Jupiter3.2
ΔV w.r.t. Earth (km/sec)10.4
semimajor axis (AU)3.0991536
mean anomaly (°)174.96282
mean daily motion (°/day)0.18065050
aphelion distance (AU)3.421
period (years)5.46
P-vector [x]0.63150149
P-vector [y]0.70605535
P-vector [z]0.32045548
Q-vector [x]-0.77536697
Q-vector [y]0.57688044
Q-vector [z]0.25693389
absolute magnitude15.57
phase slope0.15
uncertainty0
referenceMPEC 2024-F50
observations used692
oppositions19
arc length (days)9314
first opposition used1998
last opposition used2024
residual rms (arc-secs)0.73
perturbers coarse indicatorM-v
perturbers precise indicator003Ek
first observation date used1998-09-19.0
last observation date used2024-03-19.0
computer nameMPCLINUX
JD of orbit computation2456847.761727
perihelion JD uncertainty (days)1.3343E-04
argument of perihelion uncertainty (°)2.6701E-04
ascending node uncertainty (°)2.6606E-04
inclination uncertainty (°)4.4764E-06
eccentricity uncertainty 3.6573E-08
perihelion distance uncertainty (AU)1.1320E-07
Minimum Orbit Intersection Distances (in AU)
for orbit epoch: 2460400.5, reference: E2024-GD4
Mercury2.4617
Venus2.05588
Earth1.78864
Mars1.26311
Jupiter1.91475
Saturn6.13846
Uranus15.1757
Neptune27.0053

Observations

711 total observations over interval: 1998 09 19.12767 – 2024 03 19.636866
These data are available for download (format description).

Date (UT) J2000 RA J2000 Dec Magn Location Ref
1998 09 19.12767 21 02 47.22 -17 17 29.8 20.5 V 691 – Steward Observatory, Kitt Peak-Spacewatch MPS 27669
1998 09 19.14998 21 02 46.76 -17 17 31.1 20.9 V 691 – Steward Observatory, Kitt Peak-Spacewatch MPS 27669
1998 09 19.17206 21 02 46.31 -17 17 32.4 20.5 V 691 – Steward Observatory, Kitt Peak-Spacewatch MPS 27669
1998 09 26.14766 21 01 11.03 -17 21 54.9 22.1 V 691 – Steward Observatory, Kitt Peak-Spacewatch MPS 79622
1998 09 26.17314 21 01 10.79 -17 21 55.7 21.6 V 691 – Steward Observatory, Kitt Peak-Spacewatch MPS 79622
1998 09 26.19601 21 01 10.55 -17 21 56.3 21.7 V 691 – Steward Observatory, Kitt Peak-Spacewatch MPS 79622
1999 11 09.35798 03 59 00.53 +21 46 33.9 19.6   704 – Lincoln Laboratory ETS, New Mexico MPS 14011
1999 11 09.37235 03 58 59.97 +21 46 30.3 19.7   704 – Lincoln Laboratory ETS, New Mexico MPS 14011
1999 11 09.38671 03 58 59.14 +21 46 30.1 19.6   704 – Lincoln Laboratory ETS, New Mexico MPS 14011
1999 11 09.40162 03 58 58.46 +21 46 27.0 19.8   704 – Lincoln Laboratory ETS, New Mexico MPS 14011
1999 11 12.29951 03 56 35.11 +21 40 15.8 19.2   704 – Lincoln Laboratory ETS, New Mexico MPS 10854
1999 11 12.31400 03 56 34.35 +21 40 13.6 19.2   704 – Lincoln Laboratory ETS, New Mexico MPS 10854
1999 11 12.32830 03 56 33.63 +21 40 12.1 19.0   704 – Lincoln Laboratory ETS, New Mexico MPS 10854
1999 11 12.34260 03 56 32.86 +21 40 09.8 19.2   704 – Lincoln Laboratory ETS, New Mexico MPS 10854
1999 11 12.35691 03 56 32.10 +21 40 08.0 19.5   704 – Lincoln Laboratory ETS, New Mexico MPS 10854
1999 11 16.23832 03 53 12.56 +21 31 04.6 19.0   704 – Lincoln Laboratory ETS, New Mexico MPS 10854
1999 11 16.25255 03 53 11.87 +21 31 02.5 19.0   704 – Lincoln Laboratory ETS, New Mexico MPS 10854
1999 11 16.26679 03 53 11.02 +21 31 01.2 18.6   704 – Lincoln Laboratory ETS, New Mexico MPS 10854
1999 11 16.28106 03 53 10.31 +21 30 58.2 18.7   704 – Lincoln Laboratory ETS, New Mexico MPS 10854
1999 12 08.27399 03 34 38.52 +20 32 11.0 19.9   704 – Lincoln Laboratory ETS, New Mexico MPS 14011
1999 12 08.28641 03 34 38.01 +20 32 09.0 19.4   704 – Lincoln Laboratory ETS, New Mexico MPS 14011
1999 12 08.29876 03 34 37.46 +20 32 06.4 19.6   704 – Lincoln Laboratory ETS, New Mexico MPS 14011
1999 12 13.27579 03 31 13.93 +20 19 40.0 19.1 R 703 – Catalina Sky Survey MPS 14011
1999 12 13.28807 03 31 13.38 +20 19 39.6 19.1 R 703 – Catalina Sky Survey MPS 14011
1999 12 13.30027 03 31 12.88 +20 19 36.9 19.3 R 703 – Catalina Sky Survey MPS 14011
1999 12 13.31242 03 31 12.36 +20 19 35.3 18.3 R 703 – Catalina Sky Survey MPS 14011
2001 02 22.29656 10 18 59.73 +10 48 24.3 20.0 V 691 – Steward Observatory, Kitt Peak-Spacewatch MPS 27669
2001 02 22.31782 10 18 58.68 +10 48 29.8 19.9 V 691 – Steward Observatory, Kitt Peak-Spacewatch MPS 27669
2001 02 22.33899 10 18 57.61 +10 48 35.1 20.0 V 691 – Steward Observatory, Kitt Peak-Spacewatch MPS 27669
2001 03 31.20008 09 56 23.81 +12 43 15.5 21.2 V 691 – Steward Observatory, Kitt Peak-Spacewatch MPS 27669
2001 03 31.22201 09 56 23.36 +12 43 17.6 21.6 V 691 – Steward Observatory, Kitt Peak-Spacewatch MPS 27669
2001 03 31.24445 09 56 22.96 +12 43 19.0 21.1 V 691 – Steward Observatory, Kitt Peak-Spacewatch MPS 27669
2002 04 06.25740 14 47 22.33 -17 02 28.7 19.5 R 807 – Cerro Tololo Observatory, La Serena MPS 54415
2002 04 06.38881 14 47 17.57 -17 02 10.5   807 – Cerro Tololo Observatory, La Serena MPS 54415
2002 04 08.42106 14 46 04.46 -16 57 20.6 21.4 V 691 – Steward Observatory, Kitt Peak-Spacewatch MPS 54531
2002 04 08.44453 14 46 03.58 -16 57 17.0 21.2 V 691 – Steward Observatory, Kitt Peak-Spacewatch MPS 54531
2002 04 08.47135 14 46 02.57 -16 57 12.5 21.2 V 691 – Steward Observatory, Kitt Peak-Spacewatch MPS 54531
2004 09 09.23911 01 02 23.30 +07 05 41.5 19.3   704 – Lincoln Laboratory ETS, New Mexico MPS 112527
2004 09 09.25051 01 02 22.92 +07 05 40.2 20.1   704 – Lincoln Laboratory ETS, New Mexico MPS 112527
2004 09 09.26191 01 02 22.63 +07 05 37.6 19.9   704 – Lincoln Laboratory ETS, New Mexico MPS 112527
2004 09 09.27332 01 02 22.22 +07 05 36.5 19.9   704 – Lincoln Laboratory ETS, New Mexico MPS 112527
2004 09 09.28472 01 02 21.87 +07 05 35.0 20.0   704 – Lincoln Laboratory ETS, New Mexico MPS 112527
2004 09 13.35818 01 00 13.54 +06 53 55.4 19.6 R 699 – Lowell Observatory-LONEOS MPS 121029
2004 09 13.37280 01 00 13.04 +06 53 54.6   699 – Lowell Observatory-LONEOS MPS 121029
2004 09 13.38741 01 00 12.58 +06 53 51.2   699 – Lowell Observatory-LONEOS MPS 121029
2004 09 13.40200 01 00 11.98 +06 53 45.6   699 – Lowell Observatory-LONEOS MPS 121029
2004 09 17.28856 00 57 53.44 +06 40 55.0 20.5   704 – Lincoln Laboratory ETS, New Mexico MPS 114090
2004 09 17.30024 00 57 53.07 +06 40 52.5 20.1   704 – Lincoln Laboratory ETS, New Mexico MPS 114090
2004 09 17.31193 00 57 52.58 +06 40 50.8 20.2   704 – Lincoln Laboratory ETS, New Mexico MPS 114090
2004 09 17.32361 00 57 52.09 +06 40 47.4 20.1   704 – Lincoln Laboratory ETS, New Mexico MPS 114090
2004 09 22.28793 00 54 35.47 +06 22 11.1 19.7   704 – Lincoln Laboratory ETS, New Mexico MPS 114090
2004 09 22.30009 00 54 34.95 +06 22 08.5 19.6   704 – Lincoln Laboratory ETS, New Mexico MPS 114090
2004 09 22.31223 00 54 34.43 +06 22 06.1 19.5   704 – Lincoln Laboratory ETS, New Mexico MPS 114090
2004 09 22.32438 00 54 33.89 +06 22 02.7 19.7   704 – Lincoln Laboratory ETS, New Mexico MPS 114090
2004 09 22.33652 00 54 33.38 +06 21 59.7 19.9   704 – Lincoln Laboratory ETS, New Mexico MPS 114090
2004 10 04.17688 00 45 48.28 +05 30 56.9 19.2 V 691 – Steward Observatory, Kitt Peak-Spacewatch MPS 115566
2004 10 04.20477 00 45 46.94 +05 30 49.4 19.3 V 691 – Steward Observatory, Kitt Peak-Spacewatch MPS 115566
2004 10 04.23231 00 45 45.63 +05 30 41.9 19.2 V 691 – Steward Observatory, Kitt Peak-Spacewatch MPS 115566
2004 10 05.22649 00 44 59.87 +05 26 09.7 18.6 R 699 – Lowell Observatory-LONEOS MPS 115566
2004 10 05.24675 00 44 58.90 +05 26 04.5   699 – Lowell Observatory-LONEOS MPS 115566
2004 10 05.26704 00 44 57.94 +05 25 59.0   699 – Lowell Observatory-LONEOS MPS 115566
2004 10 05.28732 00 44 56.97 +05 25 53.7   699 – Lowell Observatory-LONEOS MPS 115566
2004 10 07.28165 00 43 25.00 +05 16 46.4 19.3   704 – Lincoln Laboratory ETS, New Mexico MPS 115566
2004 10 07.30409 00 43 24.00 +05 16 40.7 20.2   704 – Lincoln Laboratory ETS, New Mexico MPS 115566
2004 10 07.31518 00 43 23.43 +05 16 37.5 19.4   704 – Lincoln Laboratory ETS, New Mexico MPS 115566
2004 10 07.32635 00 43 22.83 +05 16 34.5 19.7   704 – Lincoln Laboratory ETS, New Mexico MPS 115566
2004 10 09.19951 00 41 57.13 +05 08 00.3 19.4   704 – Lincoln Laboratory ETS, New Mexico MPS 116360
2004 10 09.21022 00 41 56.63 +05 07 58.1 19.3   704 – Lincoln Laboratory ETS, New Mexico MPS 116360
2004 10 09.22093 00 41 56.12 +05 07 55.0 19.5   704 – Lincoln Laboratory ETS, New Mexico MPS 116360
2004 10 09.23165 00 41 55.59 +05 07 51.9 19.6   704 – Lincoln Laboratory ETS, New Mexico MPS 116360
2004 10 09.24236 00 41 55.14 +05 07 49.6 19.7   704 – Lincoln Laboratory ETS, New Mexico MPS 116360
2004 10 15.27468 00 37 25.06 +04 40 42.0 18.6 R G96 – Mt. Lemmon Survey MPS 117444
2004 10 15.28257 00 37 24.72 +04 40 39.8 18.5 R G96 – Mt. Lemmon Survey MPS 117444
2004 10 15.29045 00 37 24.35 +04 40 37.7 18.7 R G96 – Mt. Lemmon Survey MPS 117444
2004 10 15.29835 00 37 24.00 +04 40 35.8 18.8 R G96 – Mt. Lemmon Survey MPS 117444
2004 11 03.13988 00 26 13.99 +03 32 07.5 19.6 V 691 – Steward Observatory, Kitt Peak-Spacewatch MPS 119137
2004 11 03.15895 00 26 13.48 +03 32 04.4 19.8 V 691 – Steward Observatory, Kitt Peak-Spacewatch MPS 119137
2004 11 03.18210 00 26 12.86 +03 32 00.9 19.7 V 691 – Steward Observatory, Kitt Peak-Spacewatch MPS 119137
2005 12 22.39464 08 12 41.26 +20 59 08.1 20.4 V 691 – Steward Observatory, Kitt Peak-Spacewatch MPS 156312
2005 12 22.41201 08 12 40.61 +20 59 10.3 20.3 V 691 – Steward Observatory, Kitt Peak-Spacewatch MPS 156312
2005 12 22.42938 08 12 39.93 +20 59 12.2 19.9 V 691 – Steward Observatory, Kitt Peak-Spacewatch MPS 156312
2005 12 27.42023 08 09 21.85 +21 09 34.4 19.8 V G96 – Mt. Lemmon Survey MPS 157420
2005 12 27.42830 08 09 21.52 +21 09 35.3 19.9 V G96 – Mt. Lemmon Survey MPS 157420
